#timestamp,LO_Frequency,Hit,StdDev 
1595764815.0,286046995.4,Y
1595764815.9,286046995.4,P
1595764835.8,286046997.0,N
1595764855.6,286046997.3,N
1595764875.4,286046997.2,Y
1595764895.3,286047000.4,P
1595764915.1,286047000.3,N
1595764935.9,286047000.0,N
1595764955.7,286047000.2,N
1595764975.5,286047000.7,N
1595764995.4,286047000.6,N
1595765015.2,286047000.4,N
1595765035.0,286046998.5,N
1595765035.9,286046998.5,N
1595765055.8,286047001.1,N
1595765075.6,286046998.8,N
1595765095.5,286046998.4,N
1595765115.3,286046998.8,N
1595765135.1,286046998.6,N
1595765155.9,286046999.4,N
1595765175.7,286046998.9,N
1595765195.5,286046999.4,N
1595765215.4,286046999.3,N
1595765235.2,286046999.3,N
1595765255.1,286046999.1,N
1595765256.0,286046999.1,N
1595765275.8,286046999.1,N
1595765295.6,286046999.1,N
1595765315.5,286046996.9,Y
1595765335.3,286046998.8,P
1595765355.1,286046998.9,P
1595765375.9,286046999.0,P
1595765395.7,286046999.3,Y
1595765415.6,286046998.5,P
1595765435.4,286046998.3,P
1595765455.2,286046998.3,P
1595765475.1,286046998.3,Y
1595765476.0,286046998.3,P
1595765495.8,286047000.4,P
1595765515.7,286047000.6,N
1595765535.5,286047000.6,N
1595765555.3,286047000.9,N
1595765575.2,286047000.9,N
1595765595.0,286047000.9,N
1595765595.9,286047000.9,N
1595765615.8,286047000.5,N
1595765635.6,286047000.0,N
1595765655.4,286047000.7,N
1595765675.3,286047000.9,N
1595765695.1,286047001.1,N
1595765715.8,286047000.8,N
1595765735.7,286046998.1,N
1595765755.5,286046998.2,N
1595765775.3,286046998.5,N
1595765795.2,286046998.2,N
1595765815.0,286046998.4,N
1595765815.9,286046998.4,N
1595765835.8,286046998.7,N
1595765855.6,286046998.9,N
1595765875.4,286046999.3,N
1595765895.3,286046998.9,N
1595765915.1,286046999.1,N
1595765935.9,286046996.6,Y
1595765955.7,286046999.3,P
1595765975.5,286046998.8,P
1595765995.4,286046998.7,P
1595766015.2,286046998.8,Y
1595766035.0,286047001.0,P
1595766035.9,286047001.0,N
1595766055.8,286047000.9,N
1595766075.6,286047000.3,N
1595766095.5,286047000.6,N
1595766115.3,286046999.7,N
1595766135.1,286046999.7,N
1595766155.9,286047002.4,Y
1595766175.7,286047000.2,P
1595766195.5,286047000.1,N
1595766215.4,286047002.8,P
1595766235.2,286047000.2,N
1595766255.1,286046999.8,N
1595766256.0,286046999.8,N
1595766275.8,286047000.1,N
1595766295.6,286047002.5,N
1595766315.5,286047001.5,N
1595766335.3,286047001.3,N
1595766355.1,286047004.0,Y
1595766375.9,286047002.0,P
1595766395.7,286047001.8,N
1595766415.6,286047001.8,P
1595766435.4,286047001.8,Y
1595766455.2,286047000.7,P
1595766475.1,286047000.7,N
1595766476.0,286047000.7,N
1595766495.8,286047000.7,N
1595766515.6,286047000.7,N
1595766535.5,286047000.4,N
1595766555.3,286047000.2,N
1595766575.2,286047002.3,Y
1595766595.9,286047000.4,P
1595766615.7,286047000.0,N
1595766635.6,286047000.3,N
1595766655.4,286046998.1,Y
1595766675.2,286047001.1,P
1595766695.1,286047001.0,N
1595766696.0,286047001.0,N
1595766715.8,286047000.9,N
1595766735.7,286047000.6,N
1595766755.5,286046999.9,N
1595766775.3,286047000.3,N
1595766795.2,286047000.3,N
1595766815.0,286047000.2,N
1595766815.9,286047000.2,N
1595766835.8,286046999.9,N
1595766855.6,286047002.6,Y
1595766875.4,286047000.3,P
1595766895.3,286047000.5,P
1595766915.1,286047000.3,P
1595766935.8,286047000.2,N
1595766955.7,286046999.8,N
1595766975.5,286047002.5,Y
1595766995.4,286047002.4,P
1595767015.2,286047002.4,N
1595767035.0,286047002.5,N
1595767035.9,286047002.5,N
1595767055.8,286047002.2,N
1595767075.6,286047001.4,N
1595767095.4,286047001.5,N
1595767115.3,286047004.1,Y
1595767135.1,286046999.7,P
1595767155.9,286046999.8,N
1595767175.7,286046999.7,N
1595767195.5,286047002.7,N
1595767215.4,286047002.7,N
1595767235.2,286046999.8,N
1595767255.1,286047002.5,N
1595767256.0,286047002.5,N
1595767275.8,286047001.6,N
1595767295.6,286047001.9,N
1595767315.5,286047001.9,N
1595767335.3,286047001.5,N
1595767385.2,286047001.7,E
1595767395.1,286047001.5,N
1595767396.0,286047001.5,P
1595767415.8,286047000.2,P
1595767435.7,286047000.9,N
1595767455.5,286047002.8,Y
1595767475.4,286047000.4,P
1595767495.2,286046999.8,N
1595767515.0,286047002.4,P
1595767515.9,286047002.4,N
1595767535.8,286047002.6,N
1595767555.6,286047002.6,N
1595767575.4,286047000.1,N
1595767595.3,286047002.2,N
1595767615.1,286047002.6,N
1595767635.9,286047002.3,N
1595767655.7,286047002.1,N
1595767675.5,286047002.5,N
1595767695.4,286047002.1,N
1595767715.2,286047002.1,N
1595767735.0,286047002.0,N
1595767735.9,286047002.0,N
1595767755.8,286047001.6,N
1595767775.6,286047001.9,N
1595767795.5,286047001.8,N
1595767815.3,286047002.5,Y
1595767835.1,286047001.1,P
1595767855.9,286047000.8,N
1595767875.7,286047001.1,N
1595767895.5,286046998.2,Y
1595767915.4,286046999.2,P
1595767935.2,286046999.2,N
1595767955.1,286046999.5,N
1595767956.0,286046999.5,N
1595767975.8,286046999.3,N
1595767995.6,286046998.9,N
1595768015.5,286046999.3,N
1595768035.3,286046999.4,N
1595768055.1,286046999.4,N
1595768075.9,286046999.4,N
1595768095.7,286046999.4,N
1595768115.6,286046996.9,Y
1595768135.4,286046999.1,P
1595768155.2,286046999.5,N
1595768175.1,286046999.6,N
1595768176.0,286046999.6,N
1595768195.8,286046999.4,Y
1595768215.6,286046998.4,P
1595768235.5,286046999.2,N
1595768255.3,286046998.7,N
1595768275.2,286046998.7,Y
1595768295.9,286047001.2,P
1595768315.7,286046998.2,N
1595768335.6,286046998.2,N
1595768355.4,286046998.5,N
1595768375.2,286046998.6,N
1595768395.1,286046998.4,N
1595768396.0,286046998.4,N
